FW7766 Weather Reports


Display with metric or nautical units.
time (UTC)temp
F
wind
direction
speed
MPH
gust
MPH
rain 1hr
in
rain 24hr
in
rain mn
in
humidity
%
barometer
mb
20260906103109 69 90 1.0 2.0 0.00 0.09 0.00 93 1013.6
20260906102105 69 0.0 0.0 0.00 0.09 0.00 92 1013.7
20260906101102 69 0.0 0.0 0.00 0.09 0.00 92 1013.3
20260906100119 69 0.0 0.0 0.00 0.09 0.00 92 1013.2
20260906095055 69 0.0 0.0 0.00 0.09 0.00 93 1013.2
20260906094051 69 90 1.0 2.0 0.00 0.09 0.00 91 1013.0
20260906093108 69 74 1.0 2.0 0.00 0.09 0.00 90 1013.0
20260906092045 69 0.0 0.0 0.00 0.09 0.00 91 1013.0
20260906091041 69 0.0 0.0 0.00 0.09 0.00 90 1012.8
20260906090038 69 0.0 0.0 0.00 0.09 0.00 90 1012.9
20260906085035 70 0.0 0.0 0.00 0.09 0.00 90 1012.7
20260906084032 70 0.0 0.0 0.00 0.09 0.00 90 1012.8
20260906083028 70 0.0 0.0 0.00 0.09 0.00 90 1012.6
20260906082045 70 0.0 1.0 0.00 0.09 0.00 89 1012.5
20260906081021 70 79 1.0 2.0 0.00 0.09 0.00 90 1012.3
20260906080038 70 0 0.0 1.0 0.00 0.09 0.00 91 1012.3
20260906075135 70 45 0.0 1.0 0.00 0.09 0.00 92 1012.3
20260906074111 70 0 1.0 2.0 0.00 0.09 0.00 93 1012.3
20260906073108 70 45 2.0 3.0 0.00 0.09 0.00 92 1012.3
20260906072104 70 0 0.0 1.0 0.00 0.09 0.00 92 1012.5
20260906071101 70 0.0 0.0 0.00 0.09 0.00 92 1012.5
20260906070057 70 0.0 0.0 0.00 0.09 0.00 91 1012.8
20260906065053 70 0.0 0.0 0.00 0.09 0.00 90 1012.9
20260906064050 71 72 0.0 1.0 0.00 0.09 0.00 91 1012.9
20260906063107 71 270 0.0 1.0 0.00 0.09 0.00 90 1013.0
20260906062103 71 0.0 0.0 0.00 0.09 0.00 92 1012.9
20260906061040 71 0.0 0.0 0.00 0.09 0.00 92 1012.9
20260906060036 71 0.0 0.0 0.00 0.09 0.00 90 1013.1
20260906055033 71 0.0 1.0 0.00 0.09 0.00 90 1012.9
20260906054030 71 90 1.0 1.0 0.00 0.09 0.00 89 1012.8
20260906053026 72 0.0 0.0 0.00 0.09 0.00 90 1012.8
20260906052023 72 0.0 0.0 0.00 0.09 0.00 89 1012.8
20260906051019 72 0.0 0.0 0.00 0.09 0.00 88 1013.0
20260906050016 72 0.0 0.0 0.00 0.09 0.00 87 1013.0
20260906045113 72 0.0 0.0 0.00 0.09 0.00 87 1013.1
20260906044110 72 0.0 0.0 0.00 0.09 0.00 88 1013.1
20260906043105 72 0.0 0.0 0.00 0.09 0.00 88 1013.1
20260906042102 72 0.0 0.0 0.00 0.09 0.00 87 1013.3
20260906041058 72 0.0 0.0 0.00 0.09 0.00 86 1013.4
20260906040055 72 0.0 0.0 0.00 0.09 0.00 86 1013.3
20260906035052 72 0.0 0.0 0.00 0.09 0.09 83 1013.3
20260906034108 73 0.0 0.0 0.00 0.09 0.09 82 1013.3
20260906033105 73 0.0 0.0 0.00 0.09 0.09 80 1013.4
20260906032101 73 0.0 0.0 0.00 0.09 0.09 77 1013.3
20260906031038 73 0.0 0.0 0.00 0.09 0.09 77 1013.2
20260906030035 73 0.0 0.0 0.00 0.09 0.09 77 1013.2
20260906025051 73 0.0 0.0 0.00 0.09 0.09 76 1013.2
20260906024028 73 0.0 0.0 0.00 0.09 0.09 77 1013.2
20260906023025 73 0.0 0.0 0.00 0.09 0.09 75 1013.3
20260906022021 73 0.0 0.0 0.00 0.09 0.09 73 1013.1
20260906021017 74 0.0 0.0 0.00 0.09 0.09 71 1013.1
20260906020114 74 0.0 0.0 0.00 0.09 0.09 69 1013.0
20260906015111 74 0.0 0.0 0.00 0.09 0.09 68 1013.0
20260906014108 74 0.0 0.0 0.00 0.09 0.09 67 1013.0
20260906013104 74 0.0 0.0 0.00 0.09 0.09 67 1013.0
20260906012121 74 0.0 0.0 0.00 0.09 0.09 66 1012.7
20260906011058 74 0.0 0.0 0.00 0.09 0.09 66 1012.7
20260906010054 75 0.0 0.0 0.00 0.09 0.09 65 1012.7
20260906005051 75 0.0 0.0 0.00 0.09 0.09 65 1012.6
20260906004048 75 0.0 0.0 0.00 0.09 0.09 65 1012.5
20260906003044 76 0.0 0.0 0.00 0.09 0.09 65 1012.2
20260906002041 76 0.0 0.0 0.00 0.09 0.09 65 1012.1
20260906001037 76 0.0 0.0 0.00 0.09 0.09 63 1012.1
20260906000034 77 0.0 0.0 0.00 0.09 0.09 63 1012.0
20260905235030 77 0.0 0.0 0.00 0.09 0.09 62 1012.1
20260905234027 77 0.0 0.0 0.00 0.09 0.09 62 1012.0
20260905233023 77 0.0 0.0 0.00 0.09 0.09 61 1012.1
20260905232020 78 0.0 0.0 0.00 0.09 0.09 60 1012.1
20260905231017 78 0.0 0.0 0.00 0.09 0.09 60 1011.8
20260905230113 78 0.0 0.0 0.00 0.09 0.09 60 1011.8
20260905225110 78 0.0 0.0 0.00 0.09 0.09 59 1012.1
20260905224106 78 0.0 0.0 0.00 0.09 0.09 59 1012.1
20260905223103 78 0.0 0.0 0.00 0.09 0.09 59 1012.0
20260905222100 78 0.0 0.0 0.00 0.09 0.09 59 1012.1
20260905221056 78 0.0 0.0 0.00 0.09 0.09 59 1012.0
20260905220053 78 0.0 0.0 0.00 0.09 0.09 60 1012.1
20260905215050 77 0.0 0.0 0.00 0.09 0.09 59 1012.2
20260905214046 77 0.0 0.0 0.00 0.09 0.09 61 1012.2
20260905213102 77 0.0 0.0 0.00 0.09 0.09 61 1012.2
20260905212039 76 0.0 0.0 0.00 0.09 0.09 61 1012.4
20260905211035 76 270 0.0 1.0 0.00 0.09 0.09 62 1012.6
20260905210032 76 0.0 0.0 0.00 0.09 0.09 63 1012.5
20260905205029 76 0.0 0.0 0.00 0.09 0.09 63 1012.5
20260905204025 75 0.0 1.0 0.00 0.09 0.09 63 1012.5
20260905203022 75 270 1.0 1.0 0.00 0.09 0.09 64 1012.6
20260905202038 75 270 0.0 1.0 0.00 0.09 0.09 65 1012.5
20260905201015 76 0.0 0.0 0.00 0.09 0.09 66 1012.6
20260905200112 76 0.0 0.0 0.00 0.09 0.09 70 1012.3
20260905195129 75 0.0 0.0 0.00 0.09 0.09 75 1012.4
20260905194105 74 0.0 0.0 0.00 0.09 0.09 78 1012.6
20260905193122 74 0.0 0.0 0.00 0.09 0.09 80 1013.0
20260905192058 74 120 1.0 2.0 0.00 0.09 0.09 80 1013.1
20260905191054 73 35 1.0 3.0 0.00 0.09 0.09 74 1013.1
20260905190051 73 270 0.0 2.0 0.05 0.09 0.09 70 1012.1
20260905185048 72 0.0 0.0 0.09 0.09 0.09 69 1011.3
20260905184104 73 90 0.0 1.0 0.09 0.09 0.09 67 1011.7
20260905183040 73 270 0.0 1.0 0.09 0.09 0.09 67 1012.7
20260905182037 74 252 0.0 1.0 0.09 0.09 0.09 66 1013.2
20260905181034 76 308 3.0 9.0 0.09 0.09 0.09 62 1012.9
20260905180030 80 290 7.0 11.0 0.05 0.05 0.05 54 1013.5
20260905175147 87 317 6.0 11.0 0.00 0.00 0.00 47 1013.2
20260905174104 89 8 2.0 3.0 0.00 0.00 0.00 48 1012.8
20260905173020 91 351 2.0 3.0 0.00 0.00 0.00 45 1013.0
20260905172017 91 24 3.0 4.0 0.00 0.00 0.00 45 1013.4
20260905171114 92 319 2.0 4.0 0.00 0.00 0.00 36 1013.5
20260905170130 93 287 2.0 4.0 0.00 0.00 0.00 38 1013.8
20260905165107 93 342 1.0 3.0 0.00 0.00 0.00 37 1013.8
20260905164103 92 270 1.0 3.0 0.00 0.00 0.00 37 1013.9
20260905163120 93 270 1.0 3.0 0.00 0.00 0.00 42 1014.0
20260905162056 93 270 1.0 2.0 0.00 0.00 0.00 38 1014.0
20260905161053 93 90 0.0 2.0 0.00 0.00 0.00 45 1014.0
20260905160049 91 270 1.0 3.0 0.00 0.00 0.00 47 1014.2
20260905155126 89 270 0.0 2.0 0.00 0.00 0.00 53 1014.3
20260905154043 88 270 1.0 2.0 0.00 0.00 0.00 53 1014.2
20260905153039 87 280 1.0 3.0 0.00 0.00 0.00 51 1014.3
20260905152036 86 0.0 0.0 0.00 0.00 0.00 54 1014.2
20260905151032 85 0.0 0.0 0.00 0.00 0.00 55 1014.4
20260905150029 84 0.0 0.0 0.00 0.00 0.00 55 1014.4
20260905145025 83 0.0 0.0 0.00 0.00 0.00 56 1014.6
20260905144022 83 0.0 0.0 0.00 0.00 0.00 55 1014.6
20260905143019 82 0.0 0.0 0.00 0.00 0.00 56 1014.6
20260905142015 81 0.0 0.0 0.00 0.00 0.00 59 1014.4
20260905141112 80 0.0 0.0 0.00 0.00 0.00 59 1014.3
20260905140109 79 0.0 0.0 0.00 0.00 0.00 61 1014.3
20260905135105 78 0.0 0.0 0.00 0.00 0.00 62 1014.4
20260905134102 77 0.0 0.0 0.00 0.00 0.00 63 1014.4
20260905133059 76 0.0 0.0 0.00 0.00 0.00 64 1014.3
20260905132055 75 0.0 0.0 0.00 0.00 0.00 65 1014.3
20260905131052 75 0.0 0.0 0.00 0.00 0.00 66 1014.5
20260905130108 74 0.0 0.0 0.00 0.00 0.00 72 1014.5
20260905125125 73 0.0 0.0 0.00 0.00 0.00 75 1014.6
20260905124041 73 0.0 0.0 0.00 0.00 0.00 74 1014.6
20260905123038 72 0.0 0.0 0.00 0.00 0.00 79 1014.6
20260905122034 72 0.0 0.0 0.00 0.00 0.00 84 1014.7
20260905121111 72 0.0 0.0 0.00 0.00 0.00 85 1014.5
20260905120028 72 0.0 0.0 0.00 0.00 0.00 85 1014.5
20260905115024 72 0.0 0.0 0.00 0.00 0.00 85 1014.2
20260905114021 72 0.0 0.0 0.00 0.00 0.00 86 1014.1
20260905113017 72 0.0 0.0 0.00 0.00 0.00 86 1014.0
20260905112134 72 0.0 0.0 0.00 0.00 0.00 86 1014.0
20260905111111 72 0.0 0.0 0.00 0.00 0.00 87 1013.9
20260905110108 72 0.0 0.0 0.00 0.00 0.00 86 1013.9
20260905105104 72 0.0 0.0 0.00 0.00 0.00 86 1013.9
20260905104121 72 0.0 0.0 0.00 0.00 0.00 86 1013.6